Regional Weather Roundup
Issued by NWS

Home | Current Version | Previous Version | Graphics & Text | Print | Product List | Glossary On
Versions: 1 2 3 4 5 6 7 8 9 10 11 12 13 14 15 16 17 18 19 20 21 22 23 24 25 26 27 28 29 30 31 32 33 34 35 36 37 38 39 40 41 42 43 44 45 46 47 48 49 50
000
ASUS45 KCYS 281510
RWRWY

WYOMING REGIONAL WEATHER ROUNDUP
NATIONAL WEATHER SERVICE CHEYENNE WY
900 AM MDT SAT MAR 28 2015

NOTE:  "FAIR" INDICATES FEW OR NO CLOUDS BELOW 12,000 FEET
WITH NO SIGNIFICANT WEATHER AND/OR OBSTRUCTIONS TO VISIBILITY.

WYZ001-281600-
YELLOWSTONE NATIONAL PARK

CITY           SKY/WX    TMP DP  RH WIND       PRES   REMARKS
LK YELLOWSTONE   N/A     32  29  88 CALM      30.10F
W YELLOWSTONE  NOT AVBL

$$
WYZ002>013-054>058-071-098>099-281600-
NORTHERN WYOMING

CITY           SKY/WX    TMP DP  RH WIND       PRES   REMARKS
JACKSON        SUNNY     37  32  81 CALM      30.10F
CODY           FAIR      57  34  41 SE8       29.91F
GREYBULL       FAIR      49  32  52 SE5       29.91F
WORLAND        FAIR      52  32  46 VRB3      29.93F
SHERIDAN       FAIR      62  37  39 CALM      29.84F
BUFFALO        FAIR      60  31  33 SE7       29.89F
GILLETTE       FAIR      61  34  36 SW12      29.89F
HULETT         FAIR      52  34  50 W6        29.89F
NEWCASTLE      FAIR      46  30  53 S3        29.95S

$$
WYZ014>020-022>026-101>103-281600-
CENTRAL WYOMING

CITY           SKY/WX    TMP DP  RH WIND       PRES   REMARKS
BIG PINEY      FAIR      34  25  69 E5        30.17F WCI  30
PINEDALE       FAIR      36  32  87 CALM      30.18F
DUBOIS         FAIR      52  27  37 W24G33    30.07F
LANDER         FAIR      54  25  32 SE3       30.01F
RIVERTON       FAIR      52  28  39 SW8       30.03F
CASPER         FAIR      55  28  35 SW21      30.01F
DOUGLAS        FAIR      52  30  43 NW5       30.00F

$$
WYZ021-027>030-104>119-281600-
SOUTHERN WYOMING

CITY           SKY/WX    TMP DP  RH WIND       PRES   REMARKS
EVANSTON       FAIR      46  27  47 SW14      30.19S
KEMMERER       FAIR      41  32  70 CALM      30.18F
FORT BRIDGER   FAIR      54  27  35 W5        30.20S
ROCK SPRINGS   FAIR      47  27  45 NE3       30.18S
DIXON          FAIR      42  28  58 E9        30.23F
RAWLINS        FAIR      51  26  37 SW18      30.15S
SARATOGA       FAIR      46  30  53 S8        30.18F
LARAMIE        FAIR      51  26  37 SW18      30.14F
CHEYENNE       FAIR      55  28  35 SW8       30.08F
TORRINGTON     FAIR      50  29  44 CALM      29.99S
PINE BLUFFS    FAIR      55  28  35 W10       30.05F

$$


USA.gov is the U.S. government's official web portal to all federal, state and local government web resources and services.